| time (UTC) | temp F | wind direction | speed MPH | gust MPH | rain 1hr in | rain 24hr in | rain mn in | humidity % | barometer mb |
| 20260505225838 | 77 | 181 | 3.0 | 13.0 | 0.00 | 0.00 | 0.00 | 44 | 1012.3 |
| 20260505225333 | 77 | 228 | 1.0 | 12.0 | 0.00 | 0.00 | 0.00 | 44 | 1012.5 |
| 20260505224826 | 77 | 194 | 1.0 | 12.0 | 0.00 | 0.00 | 0.00 | 44 | 1012.5 |
| 20260505224320 | 77 | 200 | 2.0 | 12.0 | 0.00 | 0.00 | 0.00 | 43 | 1012.5 |
| 20260505223309 | 78 | 266 | 2.0 | 11.0 | 0.00 | 0.00 | 0.00 | 44 | 1012.4 |
| 20260505222802 | 78 | 207 | 1.0 | 8.0 | 0.00 | 0.00 | 0.00 | 43 | 1012.5 |
| 20260505222256 | 78 | 190 | 2.0 | 12.0 | 0.00 | 0.00 | 0.00 | 44 | 1012.6 |
| 20260505221751 | 77 | 194 | 3.0 | 12.0 | 0.00 | 0.00 | 0.00 | 43 | 1012.6 |
| 20260505221245 | 77 | 232 | 2.0 | 9.0 | 0.00 | 0.00 | 0.00 | 44 | 1012.6 |
| 20260505221010 | 77 | 187 | 2.0 | 9.0 | 0.00 | 0.00 | 0.00 | 44 | 1012.5 |
| 20260505220233 | 77 | 224 | 2.0 | 12.0 | 0.00 | 0.00 | 0.00 | 45 | 1012.5 |
| 20260505215958 | 77 | 230 | 3.0 | 15.0 | 0.00 | 0.00 | 0.00 | 43 | 1012.5 |
| 20260505215220 | 77 | 237 | 2.0 | 15.0 | 0.00 | 0.00 | 0.00 | 45 | 1012.5 |
| 20260505214714 | 77 | 233 | 2.0 | 15.0 | 0.00 | 0.00 | 0.00 | 45 | 1012.6 |
| 20260505214209 | 78 | 212 | 3.0 | 15.0 | 0.00 | 0.00 | 0.00 | 43 | 1012.6 |
| 20260505213702 | 78 | 222 | 2.0 | 12.0 | 0.00 | 0.00 | 0.00 | 43 | 1012.6 |
| 20260505213156 | 78 | 225 | 1.0 | 7.0 | 0.00 | 0.00 | 0.00 | 42 | 1012.6 |
| 20260505212650 | 78 | 217 | 1.0 | 13.0 | 0.00 | 0.00 | 0.00 | 44 | 1012.6 |
| 20260505212144 | 78 | 202 | 2.0 | 13.0 | 0.00 | 0.00 | 0.00 | 43 | 1012.6 |
| 20260505211638 | 78 | 167 | 2.0 | 13.0 | 0.00 | 0.00 | 0.00 | 44 | 1012.8 |
| 20260505211404 | 78 | 203 | 2.0 | 14.0 | 0.00 | 0.00 | 0.00 | 44 | 1012.8 |
| 20260505210627 | 77 | 207 | 4.0 | 15.0 | 0.00 | 0.00 | 0.00 | 42 | 1012.9 |
| 20260505210120 | 78 | 269 | 3.0 | 15.0 | 0.00 | 0.00 | 0.00 | 43 | 1013.0 |
| 20260505205615 | 78 | 175 | 1.0 | 11.0 | 0.00 | 0.00 | 0.00 | 43 | 1012.9 |
| 20260505205108 | 78 | 200 | 2.0 | 11.0 | 0.00 | 0.00 | 0.00 | 43 | 1012.9 |
| 20260505204603 | 78 | 288 | 3.0 | 13.0 | 0.00 | 0.00 | 0.00 | 43 | 1013.0 |
| 20260505204056 | 78 | 226 | 4.0 | 13.0 | 0.00 | 0.00 | 0.00 | 41 | 1013.1 |
| 20260505203551 | 78 | 175 | 3.0 | 9.0 | 0.00 | 0.00 | 0.00 | 44 | 1013.0 |
| 20260505203045 | 78 | 163 | 2.0 | 10.0 | 0.00 | 0.00 | 0.00 | 43 | 1013.2 |
| 20260505202539 | 77 | 173 | 2.0 | 10.0 | 0.00 | 0.00 | 0.00 | 43 | 1013.1 |
| 20260505202032 | 77 | 184 | 2.0 | 10.0 | 0.00 | 0.00 | 0.00 | 43 | 1013.3 |
| 20260505201527 | 77 | 215 | 2.0 | 11.0 | 0.00 | 0.00 | 0.00 | 42 | 1013.3 |
| 20260505201020 | 78 | 219 | 3.0 | 11.0 | 0.00 | 0.00 | 0.00 | 44 | 1013.4 |
| 20260505200512 | 77 | 189 | 3.0 | 12.0 | 0.00 | 0.00 | 0.00 | 41 | 1013.4 |
| 20260505200011 | 77 | 211 | 2.0 | 12.0 | 0.00 | 0.00 | 0.00 | 44 | 1013.6 |
| 20260505195510 | 78 | 184 | 1.0 | 8.0 | 0.00 | 0.00 | 0.00 | 41 | 1013.7 |
| 20260505195011 | 77 | 175 | 2.0 | 11.0 | 0.00 | 0.00 | 0.00 | 41 | 1013.7 |
| 20260505194510 | 77 | 236 | 4.0 | 14.0 | 0.00 | 0.00 | 0.00 | 43 | 1013.7 |
| 20260505194011 | 77 | 186 | 4.0 | 14.0 | 0.00 | 0.00 | 0.00 | 40 | 1013.8 |
| 20260505193511 | 77 | 242 | 4.0 | 16.0 | 0.00 | 0.00 | 0.00 | 39 | 1014.0 |
| 20260505193012 | 77 | 202 | 5.0 | 17.0 | 0.00 | 0.00 | 0.00 | 39 | 1014.1 |
| 20260505192512 | 77 | 232 | 4.0 | 17.0 | 0.00 | 0.00 | 0.00 | 44 | 1014.2 |
| 20260505192011 | 77 | 142 | 3.0 | 16.0 | 0.00 | 0.00 | 0.00 | 41 | 1014.0 |
| 20260505191512 | 77 | 223 | 4.0 | 12.0 | 0.00 | 0.00 | 0.00 | 40 | 1014.1 |
| 20260505191006 | 77 | 209 | 4.0 | 18.0 | 0.00 | 0.00 | 0.00 | 42 | 1014.1 |
| 20260505190506 | 77 | 292 | 3.0 | 18.0 | 0.00 | 0.00 | 0.00 | 40 | 1014.1 |
| 20260505190006 | 77 | 195 | 3.0 | 13.0 | 0.00 | 0.00 | 0.00 | 43 | 1014.2 |
| 20260505185737 | 77 | 208 | 2.0 | 12.0 | 0.00 | 0.00 | 0.00 | 43 | 1014.3 |
| 20260505185006 | 77 | 178 | 2.0 | 13.0 | 0.00 | 0.00 | 0.00 | 43 | 1014.3 |
| 20260505184507 | 77 | 194 | 4.0 | 18.0 | 0.00 | 0.00 | 0.00 | 44 | 1014.4 |
| 20260505183507 | 78 | 242 | 2.0 | 15.0 | 0.00 | 0.00 | 0.00 | 43 | 1014.4 |
| 20260505183008 | 78 | 177 | 3.0 | 13.0 | 0.00 | 0.00 | 0.00 | 45 | 1014.6 |
| 20260505182503 | 77 | 355 | 4.0 | 21.0 | 0.00 | 0.00 | 0.00 | 43 | 1014.6 |
| 20260505182002 | 77 | 74 | 5.0 | 21.0 | 0.00 | 0.00 | 0.00 | 43 | 1014.7 |
| 20260505181503 | 77 | 184 | 4.0 | 17.0 | 0.00 | 0.00 | 0.00 | 43 | 1014.8 |
| 20260505181002 | 77 | 227 | 2.0 | 13.0 | 0.00 | 0.00 | 0.00 | 43 | 1014.8 |
| 20260505180500 | 77 | 219 | 2.0 | 12.0 | 0.00 | 0.00 | 0.00 | 44 | 1015.0 |
| 20260505180000 | 76 | 261 | 3.0 | 14.0 | 0.00 | 0.00 | 0.00 | 42 | 1015.1 |
| 20260505175459 | 77 | 217 | 3.0 | 20.0 | 0.00 | 0.00 | 0.00 | 42 | 1015.2 |
| 20260505174959 | 77 | 197 | 2.0 | 20.0 | 0.00 | 0.00 | 0.00 | 42 | 1015.2 |
| 20260505174728 | 77 | 250 | 3.0 | 14.0 | 0.00 | 0.00 | 0.00 | 45 | 1015.1 |
| 20260505173957 | 76 | 259 | 3.0 | 14.0 | 0.00 | 0.00 | 0.00 | 44 | 1015.3 |
| 20260505173456 | 76 | 266 | 3.0 | 17.0 | 0.00 | 0.00 | 0.00 | 46 | 1015.4 |
| 20260505172958 | 76 | 256 | 4.0 | 17.0 | 0.00 | 0.00 | 0.00 | 45 | 1015.4 |
| 20260505172457 | 76 | 219 | 4.0 | 16.0 | 0.00 | 0.00 | 0.00 | 44 | 1015.4 |
| 20260505171956 | 76 | 52 | 3.0 | 15.0 | 0.00 | 0.00 | 0.00 | 44 | 1015.3 |
| 20260505171451 | 76 | 247 | 4.0 | 15.0 | 0.00 | 0.00 | 0.00 | 44 | 1015.4 |
| 20260505170946 | 76 | 250 | 4.0 | 15.0 | 0.00 | 0.00 | 0.00 | 45 | 1015.2 |
| 20260505170439 | 76 | 276 | 3.0 | 14.0 | 0.00 | 0.00 | 0.00 | 47 | 1015.3 |
| 20260505165932 | 75 | 279 | 4.0 | 17.0 | 0.00 | 0.00 | 0.00 | 46 | 1015.4 |
| 20260505165427 | 74 | 216 | 5.0 | 17.0 | 0.00 | 0.00 | 0.00 | 45 | 1015.4 |
| 20260505164920 | 75 | 199 | 4.0 | 14.0 | 0.00 | 0.00 | 0.00 | 45 | 1015.3 |
| 20260505164414 | 74 | 208 | 4.0 | 14.0 | 0.00 | 0.00 | 0.00 | 47 | 1015.2 |
| 20260505163909 | 74 | 240 | 5.0 | 15.0 | 0.00 | 0.00 | 0.00 | 47 | 1015.3 |
| 20260505163635 | 74 | 188 | 4.0 | 15.0 | 0.00 | 0.00 | 0.00 | 49 | 1015.4 |
| 20260505162857 | 74 | 259 | 3.0 | 13.0 | 0.00 | 0.00 | 0.00 | 49 | 1015.3 |
| 20260505162351 | 74 | 180 | 3.0 | 11.0 | 0.00 | 0.00 | 0.00 | 51 | 1015.3 |
| 20260505161844 | 74 | 227 | 3.0 | 16.0 | 0.00 | 0.00 | 0.00 | 51 | 1015.6 |
| 20260505161339 | 73 | 202 | 4.0 | 16.0 | 0.00 | 0.00 | 0.00 | 51 | 1015.6 |
| 20260505160833 | 73 | 180 | 4.0 | 13.0 | 0.00 | 0.00 | 0.00 | 50 | 1015.6 |
| 20260505160327 | 73 | 192 | 4.0 | 15.0 | 0.00 | 0.00 | 0.00 | 50 | 1015.6 |
| 20260505153252 | 71 | 220 | 3.0 | 12.0 | 0.00 | 0.00 | 0.00 | 55 | 1016.1 |
| 20260505152744 | 71 | 230 | 4.0 | 12.0 | 0.00 | 0.00 | 0.00 | 54 | 1016.1 |
| 20260505152239 | 71 | 226 | 3.0 | 11.0 | 0.00 | 0.00 | 0.00 | 56 | 1016.3 |
| 20260505151733 | 71 | 217 | 3.0 | 11.0 | 0.00 | 0.00 | 0.00 | 53 | 1016.3 |
| 20260505151226 | 70 | 219 | 4.0 | 11.0 | 0.00 | 0.00 | 0.00 | 57 | 1016.3 |
| 20260505150720 | 70 | 165 | 3.0 | 11.0 | 0.00 | 0.00 | 0.00 | 57 | 1016.4 |
| 20260505150215 | 70 | 192 | 1.0 | 9.0 | 0.00 | 0.00 | 0.00 | 60 | 1016.4 |
| 20260505140609 | 66 | 202 | 1.0 | 6.0 | 0.00 | 0.00 | 0.00 | 64 | 1016.0 |
| 20260505125019 | 56 | 148 | 0.0 | 0.0 | 0.00 | 0.00 | 0.00 | 98 | 1016.0 |
| 20260505124519 | 54 | 148 | 0.0 | 0.0 | 0.00 | 0.00 | 0.00 | 100 | 1015.8 |
| 20260505124017 | 53 | 148 | 0.0 | 0.0 | 0.00 | 0.00 | 0.00 | 100 | 1015.8 |
| 20260505123518 | 51 | 148 | 0.0 | 0.0 | 0.00 | 0.00 | 0.00 | 100 | 1015.8 |
| 20260505123018 | 50 | 148 | 0.0 | 0.0 | 0.00 | 0.00 | 0.00 | 100 | 1015.8 |
| 20260505122518 | 49 | 149 | 0.0 | 0.0 | 0.00 | 0.00 | 0.00 | 100 | 1015.8 |
| 20260505122016 | 49 | 149 | 0.0 | 0.0 | 0.00 | 0.00 | 0.00 | 100 | 1015.6 |
| 20260505121513 | 48 | 149 | 0.0 | 0.0 | 0.00 | 0.00 | 0.00 | 100 | 1015.6 |
| 20260505121249 | 47 | 232 | 0.0 | 0.0 | 0.00 | 0.00 | 0.00 | 100 | 1015.5 |
| 20260505120515 | 45 | 232 | 0.0 | 0.0 | 0.00 | 0.00 | 0.00 | 99 | 1015.6 |
| 20260505120013 | 43 | 232 | 0.0 | 0.0 | 0.00 | 0.00 | 0.00 | 99 | 1015.6 |
| 20260505115513 | 43 | 232 | 0.0 | 0.0 | 0.00 | 0.00 | 0.00 | 99 | 1015.5 |
| 20260505115011 | 42 | 232 | 0.0 | 0.0 | 0.00 | 0.00 | 0.00 | 99 | 1015.5 |
| 20260505114510 | 42 | 232 | 0.0 | 0.0 | 0.00 | 0.00 | 0.00 | 99 | 1015.6 |
| 20260505114011 | 42 | 232 | 0.0 | 0.0 | 0.00 | 0.00 | 0.00 | 98 | 1015.6 |
| 20260505113511 | 42 | 232 | 0.0 | 0.0 | 0.00 | 0.00 | 0.00 | 98 | 1015.5 |
| 20260505113241 | 41 | 232 | 0.0 | 0.0 | 0.00 | 0.00 | 0.00 | 98 | 1015.5 |
| 20260505112509 | 41 | 232 | 0.0 | 0.0 | 0.00 | 0.00 | 0.00 | 98 | 1015.5 |
| 20260505112011 | 41 | 232 | 0.0 | 0.0 | 0.00 | 0.00 | 0.00 | 98 | 1015.4 |
| 20260505111510 | 41 | 232 | 0.0 | 0.0 | 0.00 | 0.00 | 0.00 | 98 | 1015.5 |
| 20260505111244 | 41 | 232 | 0.0 | 0.0 | 0.00 | 0.00 | 0.00 | 97 | 1015.4 |
| 20260505110509 | 41 | 232 | 0.0 | 0.0 | 0.00 | 0.00 | 0.00 | 98 | 1015.3 |
| 20260505102004 | 42 | 232 | 0.0 | 0.0 | 0.00 | 0.00 | 0.00 | 98 | 1015.2 |
| 20260505101458 | 41 | 232 | 0.0 | 0.0 | 0.00 | 0.00 | 0.00 | 97 | 1015.2 |
| 20260505100951 | 42 | 232 | 0.0 | 0.0 | 0.00 | 0.00 | 0.00 | 97 | 1015.2 |
| 20260505100447 | 42 | 232 | 0.0 | 0.0 | 0.00 | 0.00 | 0.00 | 97 | 1015.1 |
| 20260505095940 | 42 | 232 | 0.0 | 0.0 | 0.00 | 0.00 | 0.00 | 97 | 1015.1 |
| 20260505095433 | 42 | 232 | 0.0 | 0.0 | 0.00 | 0.00 | 0.00 | 97 | 1015.1 |
| 20260505094927 | 42 | 232 | 0.0 | 0.0 | 0.00 | 0.00 | 0.00 | 97 | 1015.1 |
| 20260505094654 | 42 | 232 | 0.0 | 0.0 | 0.00 | 0.00 | 0.00 | 97 | 1015.0 |
| 20260505093916 | 42 | 232 | 0.0 | 0.0 | 0.00 | 0.00 | 0.00 | 97 | 1015.0 |
| 20260505093410 | 42 | 232 | 0.0 | 0.0 | 0.00 | 0.00 | 0.00 | 97 | 1015.1 |
| 20260505092904 | 42 | 232 | 0.0 | 0.0 | 0.00 | 0.00 | 0.00 | 97 | 1015.1 |
| 20260505092629 | 42 | 232 | 0.0 | 0.0 | 0.00 | 0.00 | 0.00 | 97 | 1015.2 |
| 20260505091852 | 42 | 232 | 0.0 | 0.0 | 0.00 | 0.00 | 0.00 | 97 | 1015.0 |
| 20260505091346 | 42 | 232 | 0.0 | 0.0 | 0.00 | 0.00 | 0.00 | 97 | 1015.0 |
| 20260505090840 | 42 | 232 | 0.0 | 0.0 | 0.00 | 0.00 | 0.00 | 97 | 1014.8 |
| 20260505085828 | 42 | 232 | 0.0 | 0.0 | 0.00 | 0.00 | 0.00 | 97 | 1014.7 |
| 20260505085322 | 43 | 232 | 0.0 | 0.0 | 0.00 | 0.00 | 0.00 | 97 | 1014.7 |
| 20260505084310 | 43 | 232 | 0.0 | 0.0 | 0.00 | 0.00 | 0.00 | 97 | 1014.5 |
| 20260505083803 | 43 | 232 | 0.0 | 0.0 | 0.00 | 0.00 | 0.00 | 97 | 1014.5 |
| 20260505083258 | 43 | 232 | 0.0 | 0.0 | 0.00 | 0.00 | 0.00 | 97 | 1014.5 |
| 20260505082752 | 43 | 232 | 0.0 | 0.0 | 0.00 | 0.00 | 0.00 | 96 | 1014.4 |
| 20260505082246 | 43 | 232 | 0.0 | 0.0 | 0.00 | 0.00 | 0.00 | 96 | 1014.4 |
| 20260505081740 | 43 | 232 | 0.0 | 0.0 | 0.00 | 0.00 | 0.00 | 96 | 1014.4 |
| 20260505081235 | 43 | 232 | 0.0 | 0.0 | 0.00 | 0.00 | 0.00 | 96 | 1014.3 |
| 20260505080729 | 43 | 232 | 0.0 | 0.0 | 0.00 | 0.00 | 0.00 | 96 | 1014.2 |
| 20260505080222 | 43 | 232 | 0.0 | 0.0 | 0.00 | 0.00 | 0.00 | 96 | 1014.1 |
| 20260505075716 | 43 | 232 | 0.0 | 0.0 | 0.00 | 0.00 | 0.00 | 96 | 1014.1 |
| 20260505075210 | 43 | 232 | 0.0 | 0.0 | 0.00 | 0.00 | 0.00 | 96 | 1014.0 |
| 20260505074704 | 43 | 232 | 0.0 | 0.0 | 0.00 | 0.00 | 0.00 | 96 | 1014.1 |
| 20260505074158 | 44 | 232 | 0.0 | 0.0 | 0.00 | 0.00 | 0.00 | 95 | 1014.0 |
| 20260505073652 | 44 | 232 | 0.0 | 0.0 | 0.00 | 0.00 | 0.00 | 96 | 1014.1 |
| 20260505073416 | 44 | 232 | 0.0 | 0.0 | 0.00 | 0.00 | 0.00 | 95 | 1014.1 |
| 20260505072640 | 44 | 232 | 0.0 | 0.0 | 0.00 | 0.00 | 0.00 | 95 | 1014.1 |
| 20260505072134 | 44 | 232 | 0.0 | 0.0 | 0.00 | 0.00 | 0.00 | 95 | 1014.0 |
| 20260505071628 | 44 | 232 | 0.0 | 0.0 | 0.00 | 0.00 | 0.00 | 95 | 1014.1 |
| 20260505071122 | 45 | 232 | 0.0 | 0.0 | 0.00 | 0.00 | 0.00 | 95 | 1014.1 |
| 20260505070848 | 45 | 232 | 0.0 | 0.0 | 0.00 | 0.00 | 0.00 | 96 | 1014.2 |
| 20260505070110 | 45 | 232 | 0.0 | 0.0 | 0.00 | 0.00 | 0.00 | 96 | 1014.2 |
| 20260505065836 | 45 | 232 | 0.0 | 0.0 | 0.00 | 0.00 | 0.00 | 95 | 1014.2 |
| 20260505065057 | 45 | 232 | 0.0 | 0.0 | 0.00 | 0.00 | 0.00 | 95 | 1014.3 |
| 20260505064551 | 45 | 232 | 0.0 | 0.0 | 0.00 | 0.00 | 0.00 | 96 | 1014.3 |
| 20260505064318 | 45 | 232 | 0.0 | 0.0 | 0.00 | 0.00 | 0.00 | 95 | 1014.2 |
| 20260505063820 | 45 | 232 | 0.0 | 0.0 | 0.00 | 0.00 | 0.00 | 95 | 1014.2 |
| 20260505063034 | 45 | 232 | 0.0 | 0.0 | 0.00 | 0.00 | 0.00 | 95 | 1014.2 |
| 20260505062532 | 45 | 232 | 0.0 | 0.0 | 0.00 | 0.00 | 0.00 | 94 | 1014.2 |
| 20260505062026 | 45 | 232 | 0.0 | 0.0 | 0.00 | 0.00 | 0.00 | 94 | 1014.3 |
| 20260505061516 | 45 | 232 | 0.0 | 0.0 | 0.00 | 0.00 | 0.00 | 94 | 1014.4 |
| 20260505061012 | 46 | 232 | 0.0 | 0.0 | 0.00 | 0.00 | 0.00 | 94 | 1014.5 |
| 20260505060505 | 46 | 232 | 0.0 | 0.0 | 0.00 | 0.00 | 0.00 | 94 | 1014.4 |
| 20260505055958 | 46 | 232 | 0.0 | 0.0 | 0.00 | 0.00 | 0.00 | 93 | 1014.4 |
| 20260505055723 | 46 | 232 | 0.0 | 0.0 | 0.00 | 0.00 | 0.00 | 93 | 1014.4 |
| 20260505054952 | 46 | 232 | 0.0 | 0.0 | 0.00 | 0.00 | 0.00 | 93 | 1014.4 |
| 20260505054448 | 46 | 232 | 0.0 | 0.0 | 0.00 | 0.00 | 0.00 | 93 | 1014.4 |
| 20260505053949 | 46 | 232 | 0.0 | 0.0 | 0.00 | 0.00 | 0.00 | 92 | 1014.4 |
| 20260505053453 | 47 | 232 | 0.0 | 0.0 | 0.00 | 0.00 | 0.00 | 92 | 1014.4 |
| 20260505053218 | 47 | 232 | 0.0 | 0.0 | 0.00 | 0.00 | 0.00 | 92 | 1014.4 |
| 20260505052445 | 47 | 232 | 0.0 | 0.0 | 0.00 | 0.00 | 0.00 | 92 | 1014.5 |
| 20260505051946 | 47 | 232 | 0.0 | 0.0 | 0.00 | 0.00 | 0.00 | 92 | 1014.6 |
| 20260505051445 | 47 | 232 | 0.0 | 0.0 | 0.00 | 0.00 | 0.00 | 92 | 1014.5 |
| 20260505050945 | 47 | 232 | 0.0 | 0.0 | 0.00 | 0.00 | 0.00 | 91 | 1014.6 |
| 20260505050714 | 47 | 232 | 0.0 | 0.0 | 0.00 | 0.00 | 0.00 | 91 | 1014.6 |
| 20260505041433 | 49 | 232 | 0.0 | 0.0 | 0.00 | 0.00 | 0.00 | 89 | 1014.6 |
| 20260505040931 | 49 | 232 | 0.0 | 0.0 | 0.00 | 0.00 | 0.00 | 88 | 1014.6 |
| 20260505040431 | 49 | 232 | 0.0 | 0.0 | 0.00 | 0.00 | 0.00 | 88 | 1014.6 |
| 20260505035930 | 49 | 232 | 0.0 | 0.0 | 0.00 | 0.00 | 0.00 | 88 | 1014.7 |
| 20260505035429 | 49 | 232 | 0.0 | 0.0 | 0.00 | 0.00 | 0.00 | 88 | 1014.7 |
| 20260505034930 | 49 | 232 | 0.0 | 0.0 | 0.00 | 0.00 | 0.00 | 87 | 1014.7 |
| 20260505033930 | 50 | 232 | 0.0 | 0.0 | 0.00 | 0.00 | 0.00 | 87 | 1014.7 |
| 20260505033430 | 50 | 232 | 0.0 | 0.0 | 0.00 | 0.00 | 0.00 | 86 | 1014.8 |
| 20260505032429 | 51 | 232 | 0.0 | 0.0 | 0.00 | 0.00 | 0.00 | 85 | 1014.7 |
| 20260505031930 | 51 | 232 | 0.0 | 0.0 | 0.00 | 0.00 | 0.00 | 84 | 1014.6 |
| 20260505031429 | 51 | 232 | 0.0 | 0.0 | 0.00 | 0.00 | 0.00 | 84 | 1014.6 |
| 20260505030931 | 51 | 232 | 0.0 | 0.0 | 0.00 | 0.00 | 0.00 | 83 | 1014.6 |
| 20260505030700 | 52 | 232 | 0.0 | 0.0 | 0.00 | 0.00 | 0.00 | 82 | 1014.5 |
| 20260505025928 | 52 | 232 | 0.0 | 0.0 | 0.00 | 0.00 | 0.00 | 82 | 1014.5 |
| 20260505025428 | 52 | 232 | 0.0 | 0.0 | 0.00 | 0.00 | 0.00 | 82 | 1014.5 |
| 20260505024927 | 53 | 232 | 0.0 | 0.0 | 0.00 | 0.00 | 0.00 | 82 | 1014.5 |
| 20260505024424 | 53 | 232 | 0.0 | 0.0 | 0.00 | 0.00 | 0.00 | 80 | 1014.5 |
| 20260505023923 | 53 | 232 | 0.0 | 0.0 | 0.00 | 0.00 | 0.00 | 80 | 1014.6 |
| 20260505023655 | 53 | 232 | 0.0 | 0.0 | 0.00 | 0.00 | 0.00 | 80 | 1014.5 |
| 20260505022923 | 54 | 232 | 0.0 | 0.0 | 0.00 | 0.00 | 0.00 | 80 | 1014.5 |
| 20260505022421 | 54 | 232 | 0.0 | 0.0 | 0.00 | 0.00 | 0.00 | 79 | 1014.4 |
| 20260505021923 | 54 | 232 | 0.0 | 0.0 | 0.00 | 0.00 | 0.00 | 78 | 1014.3 |
| 20260505021419 | 55 | 232 | 0.0 | 0.0 | 0.00 | 0.00 | 0.00 | 78 | 1014.3 |
| 20260505020919 | 55 | 232 | 0.0 | 0.0 | 0.00 | 0.00 | 0.00 | 76 | 1014.3 |
| 20260505020416 | 55 | 232 | 0.0 | 0.0 | 0.00 | 0.00 | 0.00 | 76 | 1014.3 |
| 20260505015913 | 56 | 232 | 0.0 | 0.0 | 0.00 | 0.00 | 0.00 | 75 | 1014.2 |
| 20260505015415 | 56 | 232 | 0.0 | 0.0 | 0.00 | 0.00 | 0.00 | 75 | 1014.1 |
| 20260505014914 | 56 | 232 | 0.0 | 0.0 | 0.00 | 0.00 | 0.00 | 74 | 1014.1 |
| 20260505014413 | 57 | 232 | 0.0 | 0.0 | 0.00 | 0.00 | 0.00 | 73 | 1014.0 |
| 20260505013913 | 57 | 232 | 0.0 | 0.0 | 0.00 | 0.00 | 0.00 | 72 | 1014.0 |
| 20260505013413 | 58 | 232 | 0.0 | 0.0 | 0.00 | 0.00 | 0.00 | 71 | 1013.9 |
| 20260505012414 | 59 | 232 | 0.0 | 0.0 | 0.00 | 0.00 | 0.00 | 69 | 1013.8 |
| 20260505011908 | 60 | 232 | 0.0 | 0.0 | 0.00 | 0.00 | 0.00 | 67 | 1013.9 |
| 20260505011634 | 61 | 232 | 0.0 | 0.0 | 0.00 | 0.00 | 0.00 | 65 | 1013.8 |
| 20260505010856 | 62 | 232 | 0.0 | 0.0 | 0.00 | 0.00 | 0.00 | 64 | 1013.7 |
| 20260505010350 | 63 | 232 | 0.0 | 0.0 | 0.00 | 0.00 | 0.00 | 62 | 1013.7 |
| 20260505005844 | 64 | 232 | 0.0 | 0.0 | 0.00 | 0.00 | 0.00 | 59 | 1013.7 |
| 20260505005338 | 64 | 232 | 0.0 | 0.0 | 0.00 | 0.00 | 0.00 | 57 | 1013.7 |
| 20260505004832 | 65 | 232 | 0.0 | 0.0 | 0.00 | 0.00 | 0.00 | 55 | 1013.6 |
| 20260505004326 | 65 | 232 | 0.0 | 0.0 | 0.00 | 0.00 | 0.00 | 54 | 1013.6 |
| 20260505003820 | 66 | 232 | 0.0 | 0.0 | 0.00 | 0.00 | 0.00 | 53 | 1013.5 |
| 20260505003545 | 67 | 232 | 0.0 | 0.0 | 0.00 | 0.00 | 0.00 | 52 | 1013.4 |
| 20260505003038 | 68 | 232 | 0.0 | 0.0 | 0.00 | 0.00 | 0.00 | 51 | 1013.4 |
| 20260505002303 | 69 | 232 | 0.0 | 0.0 | 0.00 | 0.00 | 0.00 | 49 | 1013.4 |
| 20260505002028 | 70 | 232 | 0.0 | 0.0 | 0.00 | 0.00 | 0.00 | 47 | 1013.3 |
| 20260505001249 | 71 | 232 | 0.0 | 0.0 | 0.00 | 0.00 | 0.00 | 46 | 1013.2 |
| 20260505000744 | 71 | 232 | 0.0 | 3.0 | 0.00 | 0.00 | 0.00 | 42 | 1013.2 |
| 20260505000508 | 72 | 232 | 0.0 | 4.0 | 0.00 | 0.00 | 0.00 | 42 | 1013.2 |
| 20260504235737 | 72 | 225 | 0.0 | 4.0 | 0.00 | 0.00 | 0.00 | 41 | 1013.2 |
| 20260504235458 | 72 | 237 | 1.0 | 4.0 | 0.00 | 0.00 | 0.00 | 40 | 1013.0 |
| 20260504234720 | 73 | 216 | 1.0 | 10.0 | 0.00 | 0.00 | 0.00 | 40 | 1013.0 |
| 20260504234213 | 73 | 200 | 0.0 | 10.0 | 0.00 | 0.00 | 0.00 | 39 | 1012.9 |
| 20260504233707 | 74 | 232 | 1.0 | 4.0 | 0.00 | 0.00 | 0.00 | 41 | 1012.9 |
| 20260504233432 | 74 | 194 | 1.0 | 7.0 | 0.00 | 0.00 | 0.00 | 39 | 1012.8 |
| 20260504232655 | 74 | 223 | 1.0 | 7.0 | 0.00 | 0.00 | 0.00 | 39 | 1012.8 |
| 20260504232150 | 75 | 204 | 2.0 | 11.0 | 0.00 | 0.00 | 0.00 | 38 | 1012.8 |
| 20260504231644 | 75 | 203 | 2.0 | 11.0 | 0.00 | 0.00 | 0.00 | 38 | 1012.8 |
| 20260504231139 | 75 | 188 | 2.0 | 8.0 | 0.00 | 0.00 | 0.00 | 38 | 1012.7 |
| 20260504230631 | 75 | 237 | 2.0 | 7.0 | 0.00 | 0.00 | 0.00 | 38 | 1012.7 |